Home   Weather   Gerasdorf bei Wien   Past weeks

Flag for Austria Past Weather in Gerasdorf bei Wien, Lower Austria, Austria — Yesterday and Last 2 Weeks

Now
62 °F

Cool.


Feels Like: 62 °F
Forecast: 60 / 72 °F
Wind: 9 mph from West

Location: Wien / Hohe Warte

Current Time: Jul 25, 2017 at 1:09:03 am

Latest Report: Jul 25, 2017 at 12:00 am


Visibility: N/A

Pressure: 29.70 "Hg

Humidity: 79%

Dew Point: 55 °F

Location of Gerasdorf bei WienLocation

Past Weather in Gerasdorf bei Wien — Graph

°F

Gerasdorf bei Wien Temperature Yesterday

Maximum temperature yesterday: 73 °F (at 1:00 pm)
Minimum temperature yesterday: 61 °F (at 11:00 pm)
Average temperature yesterday: 67 °F

High & Low Weather Summary for the Past Weeks

 TemperatureHumidityPressure
High94 °F (Jul 20, 4:00 pm)96% (Jul 10, 11:00 pm)30.24 "Hg (Jul 10, 11:00 pm)
Low54 °F (Jul 14, 6:00 am)25% (Jul 20, 5:00 pm)29.64 "Hg (Jul 24, 4:00 pm)
Average72 °F60%29.96 "Hg
* Reported Jul 9 11:00 pm — Jul 24 11:00 pm, Gerasdorf bei Wien. Weather by CustomWeather, © 2017

Note: Actual official high and low records may vary slightly from our data, if they occured in-between our weather recording intervals... More about our weather records

Advertising

Gerasdorf bei Wien Weather History for the Previous 24 Hours

Scroll right to see more
 ConditionsComfort  
Time TempWeatherWind HumidityBarometerVisibility
11:00 pm
Mon, Jul 24
61 °FOvercast.9 mph81%29.67 "Hg16 mi
10:00 pm63 °FPassing clouds.7 mph85%29.69 "Hg19 mi
9:00 pm64 °FLight rain. Overcast.7 mph88%29.67 "Hg19 mi
8:00 pm65 °FLight rain. Overcast.5 mph90%29.68 "Hg25 mi
7:00 pm65 °FRain. Overcast.3 mph89%29.67 "Hg8 mi
6:00 pm66 °FRain. Overcast.5 mph91%29.66 "Hg9 mi
5:00 pm68 °FOvercast.2 mph90%29.65 "Hg11 mi
4:00 pm69 °FOvercast.2 mph79%29.64 "Hg14 mi
3:00 pm67 °FLight rain. Overcast.3 mph89%29.67 "Hg12 mi
2:00 pm68 °FRain. Low clouds.1 mph84%29.71 "Hg4 mi
1:00 pm73 °FOvercast.2 mph67%29.72 "Hg17 mi
12:00 pm72 °FOvercast.2 mph70%29.76 "Hg17 mi
11:00 am70 °FOvercast.1 mph74%29.80 "Hg16 mi
10:00 am68 °FOvercast.No wind78%29.82 "Hg16 mi
9:00 am65 °FLight rain. Overcast.1 mph88%29.85 "Hg12 mi
8:00 am65 °FOvercast.1 mph93%29.87 "Hg11 mi
7:00 am66 °FRain. Overcast.2 mph88%29.89 "Hg11 mi
6:00 am67 °FMild.2 mph83%29.89 "HgN/A
5:00 am67 °FMild.1 mph83%29.90 "HgN/A
4:00 am66 °FMild.1 mph86%29.91 "HgN/A
3:00 am67 °FMild.2 mph86%29.92 "HgN/A
2:00 am67 °FOvercast.3 mph90%29.94 "Hg12 mi
1:00 am67 °FSprinkles. Overcast.3 mph90%29.96 "HgN/A
Weather by CustomWeather, © 2017

See weather overviewHow to use our weather pages